Latest Weather Observations for Lake Macquarie - Cooranbong

IDN60901

Issued at 10:51 am EST Tuesday 7 July 2015 (issued every 10 minutes, with the page automatically refreshed every 10 minutes)

About weather observations | Map of Sydney area stations | Latest observations for Sydney area | Other Formats
Station Details ID: 061412 Name: LAKE MACQUARIE AWS Lat: -33.09 Lon: 151.46 Height: 6.0 m
Data from the previous 72 hours. | See also: Recent months at Lake Macquarie - Cooranbong
Date/Time
EST
Tmp

°C
App
Tmp
°C
Dew
Point
°C
Rel
Hum
%
Delta-T

°C
Wind Press
QNH
hPa
Press
MSL
hPa
Rain
since
9 am
mm
Dir
 
Spd
km/h
Gust
km/h
Spd
kts
Gust
kts
07/10:30am 14.8 11.4 3.9 48 5.0 SW 11 22 6 12 1020.6 1020.6 0.0
07/10:00am 14.7 11.9 5.0 52 4.5 SW 9 20 5 11 1020.5 1020.5 0.0
07/09:30am 13.9 11.4 4.5 53 4.3 WSW 7 13 4 7 1020.3 1020.3 0.0
07/09:00am 12.4 10.3 6.0 65 3.0 WSW 6 15 3 8 1019.9 1019.9 0.2
07/08:30am 8.1 7.2 6.1 87 0.9 CALM 0 0 0 0 1019.8 1019.8 0.2
07/08:00am 5.5 4.3 4.5 93 0.4 CALM 0 2 0 1 1019.7 1019.7 0.2
07/07:30am 3.0 1.3 1.8 92 0.5 CALM 0 0 0 0 1019.4 1019.4 0.2
07/07:00am 3.2 1.5 2.0 92 0.5 CALM 0 4 0 2 1018.8 1018.8 0.2
07/06:30am 3.5 1.5 2.5 93 0.4 ENE 2 6 1 3 1018.3 1018.3 0.2
07/06:00am 2.7 0.6 1.5 92 0.5 E 2 4 1 2 1017.8 1017.8 0.2
07/05:30am 2.8 1.0 1.5 91 0.5 CALM 0 0 0 0 1017.4 1017.4 0.2
07/05:00am 3.3 1.6 2.1 92 0.5 CALM 0 0 0 0 1017.1 1017.1 0.2
07/04:30am 3.4 1.7 2.1 91 0.5 CALM 0 0 0 0 1016.9 1016.9 0.2
07/04:00am 3.5 1.9 2.2 91 0.5 CALM 0 0 0 0 1017.0 1017.0 0.2
07/03:30am 3.7 2.1 2.2 90 0.6 CALM 0 0 0 0 1016.9 1016.9 0.2
07/03:00am 3.5 1.8 1.7 88 0.7 CALM 0 0 0 0 1016.8 1016.8 0.2
07/02:30am 4.2 2.6 2.4 88 0.7 CALM 0 0 0 0 1016.7 1016.7 0.2
07/02:00am 4.3 2.3 2.2 86 0.8 N 2 7 1 4 1016.6 1016.6 0.2
07/01:30am 4.5 2.1 2.0 84 1.0 N 4 6 2 3 1016.6 1016.6 0.0
07/01:00am 5.4 3.3 1.9 78 1.4 N 2 6 1 3 1016.8 1016.8 0.0
07/12:30am 7.6 5.0 4.2 79 1.5 N 7 11 4 6 1016.7 1016.7 0.0
07/12:00am 4.3 2.3 2.5 88 0.7 NNE 2 7 1 4 1016.8 1016.8 0.0
 
Date/Time
EST
Tmp

°C
App
Tmp
°C
Dew
Point
°C
Rel
Hum
%
Delta-T

°C
Wind Press
QNH
hPa
Press
MSL
hPa
Rain
since
9 am
mm
Dir
 
Spd
km/h
Gust
km/h
Spd
kts
Gust
kts
06/11:30pm 4.0 1.7 2.5 90 0.6 N 4 7 2 4 1016.9 1016.9 0.0
06/11:00pm 3.8 2.2 2.3 90 0.6 CALM 0 0 0 0 1017.1 1017.1 0.0
06/10:30pm 4.0 2.4 2.7 91 0.5 CALM 0 0 0 0 1017.1 1017.1 0.0
06/10:00pm 4.4 2.5 3.1 91 0.5 NNE 2 4 1 2 1016.8 1016.8 0.0
06/09:30pm 4.5 2.6 3.0 90 0.6 NNE 2 6 1 3 1016.7 1016.7 0.0
06/09:00pm 4.8 2.3 3.5 91 0.5 NNW 6 9 3 5 1016.8 1016.8 0.0
06/08:30pm 4.4 2.6 3.2 92 0.5 N 2 6 1 3 1016.8 1016.8 0.0
06/08:00pm 5.3 4.0 4.0 91 0.5 CALM 0 0 0 0 1016.6 1016.6 0.0
06/07:30pm 5.8 4.5 4.0 88 0.8 CALM 0 0 0 0 1016.5 1016.5 0.0
06/07:00pm 6.5 5.3 4.7 88 0.8 CALM 0 0 0 0 1016.1 1016.1 0.0
06/06:30pm 7.2 6.1 4.9 85 1.0 CALM 0 0 0 0 1015.8 1015.8 0.0
06/06:00pm 7.9 6.7 4.8 81 1.4 CALM 0 4 0 2 1015.3 1015.3 0.0
06/05:30pm 9.1 8.0 4.9 75 1.9 CALM 0 4 0 2 1014.8 1014.8 0.0
06/05:00pm 12.1 10.5 4.3 59 3.5 NW 2 4 1 2 1014.4 1014.4 0.0
06/04:30pm 14.7 12.4 2.6 44 5.4 NW 4 6 2 3 1014.0 1014.0 0.0
06/04:00pm 16.9 13.9 0.5 33 7.1 WNW 6 11 3 6 1013.8 1013.8 0.0
06/03:30pm 17.3 14.3 1.7 35 7.0 WNW 7 11 4 6 1013.7 1013.7 0.0
06/03:00pm 17.2 13.7 1.2 34 7.1 NNW 9 15 5 8 1013.6 1013.6 0.0
06/02:30pm 17.1 13.6 1.1 34 7.0 NW 9 17 5 9 1013.5 1013.5 0.0
06/02:00pm 17.0 13.3 0.2 32 7.3 NNW 9 17 5 9 1013.4 1013.4 0.0
06/01:30pm 16.8 12.7 0.0 32 7.2 NW 11 22 6 12 1013.6 1013.6 0.0
06/01:00pm 16.7 12.7 0.4 33 7.0 WNW 11 24 6 13 1013.9 1013.9 0.0
06/12:30pm 16.2 12.1 -0.5 32 7.1 NW 11 19 6 10 1014.4 1014.4 0.0
06/12:00pm 15.8 11.5 -1.3 31 7.1 NW 11 20 6 11 1015.0 1015.0 0.0
06/11:30am 15.9 12.2 -0.3 33 6.9 NW 9 13 5 7 1015.5 1015.5 0.0
06/11:00am 15.4 11.8 0.8 37 6.3 NW 9 22 5 12 1016.0 1016.0 0.0
06/10:30am 14.4 11.2 0.6 39 5.9 NW 7 17 4 9 1016.2 1016.2 0.0
06/10:00am 13.6 10.5 1.6 44 5.2 NW 7 13 4 7 1016.6 1016.6 0.0
06/09:30am 10.6 9.9 8.4 86 1.1 W 2 4 1 2 1016.8 1016.8 0.0
06/09:00am 7.2 6.4 6.6 96 0.3 CALM 0 0 0 0 1016.8 1016.8 0.0
06/08:30am 3.8 2.4 3.4 97 0.2 CALM 0 0 0 0 1016.7 1016.7 0.0
06/08:00am 1.3 -0.6 0.7 96 0.2 CALM 0 0 0 0 1016.8 1016.8 0.0
06/07:30am -0.1 -2.2 -0.8 95 0.2 CALM 0 0 0 0 1016.9 1016.9 0.0
06/07:00am -0.1 -2.2 -0.8 95 0.2 CALM 0 0 0 0 1016.8 1016.8 0.0
06/06:30am 0.0 -2.1 -0.7 95 0.2 CALM 0 0 0 0 1016.7 1016.7 0.0
06/06:00am -0.1 -2.2 -0.8 95 0.2 CALM 0 0 0 0 1016.6 1016.6 0.0
06/05:30am 0.3 -1.7 -0.4 95 0.2 CALM 0 0 0 0 1016.3 1016.3 0.0
06/05:00am 0.4 -1.6 -0.3 95 0.2 CALM 0 0 0 0 1016.6 1016.6 0.0
06/04:30am 0.7 -1.3 0.0 95 0.3 CALM 0 0 0 0 1016.7 1016.7 0.0
06/04:00am 0.8 -1.2 0.1 95 0.3 CALM 0 0 0 0 1016.7 1016.7 0.0
06/03:30am 0.8 -1.2 0.1 95 0.3 CALM 0 0 0 0 1016.9 1016.9 0.0
06/03:00am 1.4 -0.5 0.7 95 0.3 CALM 0 0 0 0 1017.0 1017.0 0.0
06/02:30am 1.4 -0.5 0.7 95 0.3 CALM 0 0 0 0 1017.5 1017.5 0.0
06/02:00am 1.6 -0.2 0.9 95 0.3 CALM 0 0 0 0 1017.7 1017.7 0.0
06/01:30am 1.8 0.0 1.1 95 0.3 CALM 0 0 0 0 1018.1 1018.1 0.0
06/01:00am 2.4 0.7 1.7 95 0.3 CALM 0 0 0 0 1018.2 1018.2 0.0
06/12:30am 2.7 1.0 2.0 95 0.3 CALM 0 0 0 0 1018.3 1018.3 0.0
06/12:00am 2.8 1.1 1.9 94 0.3 CALM 0 0 0 0 1018.4 1018.4 0.0
 
Date/Time
EST
Tmp

°C
App
Tmp
°C
Dew
Point
°C
Rel
Hum
%
Delta-T

°C
Wind Press
QNH
hPa
Press
MSL
hPa
Rain
since
9 am
mm
Dir
 
Spd
km/h
Gust
km/h
Spd
kts
Gust
kts
05/11:30pm 3.3 1.7 2.4 94 0.4 CALM 0 0 0 0 1018.5 1018.5 0.0
05/11:00pm 3.7 2.2 2.8 94 0.4 CALM 0 0 0 0 1018.6 1018.6 0.0
05/10:30pm 4.0 2.5 3.1 94 0.4 CALM 0 0 0 0 1018.6 1018.6 0.0
05/10:00pm 4.4 3.0 3.5 94 0.4 CALM 0 0 0 0 1018.4 1018.4 0.0
05/09:30pm 4.8 3.4 3.8 93 0.4 CALM 0 0 0 0 1018.5 1018.5 0.0
05/09:00pm 5.2 3.9 4.2 93 0.4 CALM 0 0 0 0 1018.7 1018.7 0.0
05/08:30pm 5.5 4.2 4.3 92 0.5 CALM 0 0 0 0 1018.7 1018.7 0.0
05/08:00pm 6.1 4.9 4.7 91 0.6 CALM 0 0 0 0 1018.9 1018.9 0.0
05/07:30pm 6.7 5.6 5.2 90 0.7 CALM 0 0 0 0 1018.9 1018.9 0.0
05/07:00pm 7.1 6.0 5.3 88 0.8 CALM 0 0 0 0 1018.7 1018.7 0.0
05/06:30pm 8.1 7.2 6.2 88 0.9 CALM 0 0 0 0 1018.5 1018.5 0.0
05/06:00pm 9.0 8.3 6.8 86 1.0 CALM 0 0 0 0 1018.5 1018.5 0.0
05/05:30pm 9.6 8.3 6.1 79 1.6 NNW 2 4 1 2 1018.3 1018.3 0.0
05/05:00pm 12.0 11.1 6.1 67 2.8 CALM 0 4 0 2 1018.4 1018.4 0.0
05/04:30pm 14.9 13.0 5.1 52 4.6 N 4 7 2 4 1018.1 1018.1 0.0
05/04:00pm 17.2 15.0 3.5 40 6.3 NNW 4 7 2 4 1018.3 1018.3 0.0
05/03:30pm 18.3 15.8 3.8 38 6.8 NW 6 9 3 5 1018.4 1018.4 0.0
05/03:00pm 18.1 15.4 3.9 39 6.7 NNW 7 11 4 6 1018.2 1018.2 0.0
05/02:30pm 18.2 15.3 2.5 35 7.2 NNW 7 13 4 7 1018.2 1018.2 0.0
05/02:00pm 18.4 15.6 2.3 34 7.3 NNW 6 13 3 7 1018.2 1018.2 0.0
05/01:30pm 18.2 15.2 0.8 31 7.7 N 6 9 3 5 1018.6 1018.6 0.0
05/01:00pm 18.4 15.8 1.0 31 7.7 NW 4 9 2 5 1018.9 1018.9 0.0
05/12:30pm 18.0 15.6 2.3 35 7.1 NNW 4 9 2 5 1019.6 1019.6 0.0
05/12:00pm 17.1 15.4 3.8 41 6.2 N 2 6 1 3 1020.1 1020.1 0.0
05/11:30am 15.9 13.8 4.0 45 5.5 ENE 4 7 2 4 1020.7 1020.7 0.0
05/11:00am 14.5 13.0 4.8 52 4.5 E 2 6 1 3 1021.3 1021.3 0.0
05/10:30am 14.0 13.0 5.6 57 4.0 CALM 0 0 0 0 1021.9 1021.9 0.0
05/10:00am 11.4 9.9 5.1 65 2.9 SE 2 6 1 3 1022.1 1022.1 0.0
05/09:30am 9.4 8.4 5.4 76 1.8 CALM 0 0 0 0 1022.1 1022.1 0.0
05/09:00am 6.4 5.4 5.4 93 0.4 CALM 0 0 0 0 1022.2 1022.2 0.0
05/08:30am 3.3 1.7 2.7 96 0.2 CALM 0 0 0 0 1022.2 1022.2 0.0
05/08:00am 1.4 -0.5 0.8 96 0.2 CALM 0 0 0 0 1022.2 1022.2 0.0
05/07:30am -0.2 -2.3 -0.9 95 0.2 CALM 0 0 0 0 1022.2 1022.2 0.0
05/07:00am -0.4 -2.5 -1.1 95 0.2 CALM 0 0 0 0 1022.0 1022.0 0.0
05/06:30am -0.1 -2.2 -0.8 95 0.2 CALM 0 0 0 0 1022.0 1022.0 0.0
05/06:00am -0.2 -2.3 -0.9 95 0.2 CALM 0 0 0 0 1021.8 1021.8 0.0
05/05:30am 0.0 -2.1 -0.7 95 0.2 CALM 0 0 0 0 1021.6 1021.6 0.0
05/05:00am 0.3 -1.7 -0.4 95 0.2 CALM 0 0 0 0 1021.6 1021.6 0.0
05/04:30am 0.5 -1.5 -0.2 95 0.3 CALM 0 0 0 0 1021.5 1021.5 0.0
05/04:00am 0.5 -1.5 -0.2 95 0.2 CALM 0 0 0 0 1021.5 1021.5 0.0
05/03:30am 0.7 -1.3 0.0 95 0.3 CALM 0 0 0 0 1021.7 1021.7 0.0
05/03:00am 0.8 -1.2 0.1 95 0.3 CALM 0 0 0 0 1021.7 1021.7 0.0
05/02:30am 1.2 -0.7 0.5 95 0.3 CALM 0 0 0 0 1021.9 1021.9 0.0
05/02:00am 1.4 -0.5 0.7 95 0.3 CALM 0 0 0 0 1022.0 1022.0 0.0
05/01:30am 1.5 -0.4 0.8 95 0.3 CALM 0 0 0 0 1022.0 1022.0 0.0
05/01:00am 2.0 0.2 1.3 95 0.3 CALM 0 0 0 0 1021.8 1021.8 0.0
05/12:30am 2.1 0.3 1.4 95 0.3 CALM 0 0 0 0 1021.9 1021.9 0.0
05/12:00am 1.9 0.1 1.0 94 0.3 CALM 0 0 0 0 1022.1 1022.1 0.0
 
Date/Time
EST
Tmp

°C
App
Tmp
°C
Dew
Point
°C
Rel
Hum
%
Delta-T

°C
Wind Press
QNH
hPa
Press
MSL
hPa
Rain
since
9 am
mm
Dir
 
Spd
km/h
Gust
km/h
Spd
kts
Gust
kts
04/11:30pm 2.1 0.3 1.2 94 0.3 CALM 0 4 0 2 1022.0 1022.0 0.0
04/11:00pm 2.7 1.0 1.8 94 0.3 CALM 0 0 0 0 1022.1 1022.1 0.0
04/10:30pm 2.7 1.0 1.7 93 0.4 CALM 0 0 0 0 1022.2 1022.2 0.0
04/10:00pm 3.0 1.3 2.0 93 0.4 CALM 0 0 0 0 1022.2 1022.2 0.0
04/09:30pm 3.4 1.8 2.4 93 0.4 CALM 0 0 0 0 1022.3 1022.3 0.0
04/09:00pm 3.6 2.0 2.3 91 0.5 CALM 0 0 0 0 1022.5 1022.5 0.0
04/08:30pm 4.3 2.8 3.0 91 0.5 CALM 0 0 0 0 1022.5 1022.5 0.0
04/08:00pm 4.8 3.4 3.3 90 0.6 CALM 0 0 0 0 1022.4 1022.4 0.0
04/07:30pm 5.2 3.8 3.5 89 0.7 CALM 0 0 0 0 1022.3 1022.3 0.0
04/07:00pm 5.6 4.2 3.6 87 0.8 CALM 0 4 0 2 1022.1 1022.1 0.0
04/06:30pm 6.5 5.2 4.2 85 1.0 CALM 0 0 0 0 1021.8 1021.8 0.0
04/06:00pm 7.3 6.1 4.6 83 1.2 CALM 0 0 0 0 1021.5 1021.5 0.0
04/05:30pm 8.5 7.3 4.7 77 1.7 CALM 0 0 0 0 1021.2 1021.2 0.0
04/05:00pm 10.5 9.4 5.1 69 2.4 CALM 0 0 0 0 1020.9 1020.9 0.0
04/04:30pm 12.8 11.4 3.5 53 4.2 CALM 0 0 0 0 1020.5 1020.5 0.0
04/04:00pm 15.7 13.6 1.4 38 6.2 W 2 6 1 3 1020.4 1020.4 0.0
04/03:30pm 17.1 13.5 -3.6 24 8.3 WSW 6 11 3 6 1020.2 1020.2 0.0
04/03:00pm 18.1 14.6 -1.7 26 8.3 WSW 7 17 4 9 1019.8 1019.8 0.0
04/02:30pm 17.6 13.8 -0.6 29 7.8 WNW 9 20 5 11 1019.5 1019.5 0.0
04/02:00pm 17.7 14.4 2.5 36 6.9 NW 9 19 5 10 1019.3 1019.3 0.0
04/01:30pm 17.4 13.7 2.6 37 6.7 WNW 11 19 6 10 1019.7 1019.7 0.0
04/01:00pm 17.3 14.5 3.2 39 6.5 NW 7 13 4 7 1019.9 1019.9 0.0
04/12:30pm 16.9 13.7 3.2 40 6.3 NW 9 15 5 8 1020.4 1020.4 0.0
04/12:00pm 16.4 13.1 4.4 45 5.6 NW 11 20 6 11 1020.9 1020.9 0.0
04/11:30am 15.9 13.3 4.3 46 5.4 WNW 7 17 4 9 1021.6 1021.6 0.0
04/11:00am 15.0 11.7 4.4 49 4.9 NW 11 20 6 11 1022.1 1022.1 0.0

Latest Capital City Observations: Canberra | Sydney | Melbourne | Brisbane | Adelaide | Perth | Hobart | Darwin

Other Formats:

Comma delimited format used in spreadsheet applications
http://www.bom.gov.au/fwo/IDN60901/IDN60901.95767.axf

JavaScript Object Notation format (JSON) in row-major order
http://www.bom.gov.au/fwo/IDN60901/IDN60901.95767.json